Weather History for Detroit, MI

Change the Weather History Date:

Friday, February 15, 2013

  Actual Average Record
Temperature  
Mean Temperature 30 °F -  
Max Temperature 35 °F 33 °F 66 °F (1954)
Min Temperature 25 °F 22 °F 2 °F (1963)
Degree Days  
Heating Degree Days 34    
Moisture  
Dew Point 17 °F    
Average Humidity 61    
Maximum Humidity 75    
Minimum Humidity 41    
Precipitation  
Precipitation 0.00 in - - ()
Sea Level Pressure  
Sea Level Pressure 30.02 in    
Wind  
Wind Speed 9 mph (WNW)    
Max Wind Speed 15 mph    
Max Gust Speed 24 mph    
Visibility 10 miles    
Events Snow    
Averages and records for this station are not official NWS values.
T = Trace of Precipitation, MM = Missing Value Source: NWS Daily Summary

Daily Weather History Graph

Daily Weather History Graph

Search for Another Location

Airport:

Trip Planner

Search our weather history database for the weather conditions in past years. The results will help you decide how hot, cold, wet, or windy it might be!

Date:

Astronomy

Feb. 15, 2013 Rise Set
Actual Time 7:28 AM EST 6:04 PM EST
Civil Twilight 6:59 AM EST 6:33 PM EST
Nautical Twilight 6:26 AM EST 7:06 PM EST
Astronomical Twilight 5:54 AM EST 7:39 PM EST
Moon 9:55 AM EST (2/15) No Moon Set
Length of Visible Light 11h 34m
Length of Day
10h 36m
Waxing Crescent, 30% of the Moon is Illuminated
Feb 15
Waxing Crescent
Feb 17
First Quarter
Feb 25
Full
Mar 4
Last Quarter
Mar 11
New

Hourly Weather History & Observations

Time (EST) Temp. Windchill Dew Point Humidity Pressure Visibility Wind Dir Wind Speed Gust Speed Precip Events Conditions
12:53 AM 35.1 °F 27.9 °F 27.0 °F 72% 29.85 in 10.0 mi West 9.2 mph 20.7 mph N/A   Overcast
1:53 AM 34.0 °F 26.0 °F 25.0 °F 70% 29.87 in 10.0 mi West 10.4 mph 19.6 mph N/A   Overcast
2:27 AM 33.8 °F 23.9 °F 24.8 °F 70% 29.87 in 10.0 mi West 15.0 mph 21.9 mph N/A   Overcast
2:37 AM 33.8 °F 25.3 °F 24.8 °F 70% 29.87 in 10.0 mi West 11.5 mph - N/A   Overcast
2:53 AM 32.0 °F 23.6 °F 24.1 °F 73% 29.90 in 10.0 mi WNW 10.4 mph 16.1 mph N/A   Overcast
3:53 AM 30.9 °F 24.3 °F 23.0 °F 72% 29.91 in 10.0 mi NW 6.9 mph 16.1 mph N/A   Mostly Cloudy
4:01 AM 30.2 °F 23.4 °F 23.0 °F 75% 29.89 in 10.0 mi WNW 6.9 mph - N/A   Partly Cloudy
4:53 AM 30.0 °F 23.2 °F 23.0 °F 75% 29.93 in 10.0 mi WNW 6.9 mph - N/A   Clear
5:53 AM 28.9 °F 20.4 °F 21.0 °F 72% 29.97 in 10.0 mi WNW 9.2 mph - N/A   Overcast
6:53 AM 28.0 °F 21.7 °F 21.0 °F 75% 29.99 in 10.0 mi WNW 5.8 mph - N/A   Mostly Cloudy
7:53 AM 28.0 °F 22.8 °F 21.0 °F 75% 30.01 in 10.0 mi WNW 4.6 mph - N/A   Overcast
8:32 AM 28.4 °F 20.4 °F 19.4 °F 69% 30.01 in 10.0 mi West 8.1 mph - N/A   Overcast
8:53 AM 28.0 °F 18.6 °F 19.0 °F 69% 30.04 in 10.0 mi WNW 10.4 mph - N/A   Overcast
9:53 AM 27.0 °F 16.7 °F 12.0 °F 53% 30.06 in 10.0 mi WNW 11.5 mph - N/A   Overcast
10:53 AM 28.0 °F 20.8 °F 12.0 °F 51% 30.07 in 10.0 mi WNW 6.9 mph - N/A   Overcast
11:53 AM 30.9 °F 22.2 °F 14.0 °F 50% 30.07 in 10.0 mi NW 10.4 mph 17.3 mph N/A   Partly Cloudy
12:53 PM 30.0 °F 21.1 °F 12.9 °F 49% 30.06 in 10.0 mi WNW 10.4 mph 21.9 mph N/A   Overcast
1:53 PM 30.0 °F 21.1 °F 12.0 °F 47% 30.06 in 10.0 mi WNW 10.4 mph - N/A   Overcast
2:53 PM 30.0 °F 21.7 °F 10.9 °F 45% 30.06 in 10.0 mi NW 9.2 mph 24.2 mph N/A   Overcast
3:53 PM 30.0 °F 22.4 °F 9.0 °F 41% 30.07 in 10.0 mi West 8.1 mph - N/A   Mostly Cloudy
4:53 PM 28.9 °F 19.8 °F 10.0 °F 45% 30.09 in 10.0 mi NW 10.4 mph 18.4 mph N/A   Overcast
5:53 PM 27.0 °F 18.7 °F 10.0 °F 49% 30.11 in 10.0 mi WNW 8.1 mph 18.4 mph N/A   Overcast
6:53 PM 26.6 °F 19.1 °F 10.4 °F 51% 30.10 in 10.0 mi NNW 6.9 mph - N/A   Overcast
7:53 PM 27.0 °F 20.5 °F 10.0 °F 49% 30.13 in 10.0 mi NW 5.8 mph - N/A   Overcast
8:53 PM 27.0 °F 23.0 °F 10.0 °F 49% 30.13 in 10.0 mi NW 3.5 mph - N/A   Overcast
9:53 PM 27.0 °F 23.0 °F 10.9 °F 51% 30.13 in 10.0 mi West 3.5 mph - N/A   Overcast
10:53 PM 27.0 °F 18.7 °F 12.9 °F 56% 30.12 in 10.0 mi West 8.1 mph - N/A   Overcast
11:53 PM 25.0 °F 16.3 °F 17.1 °F 72% 30.12 in 6.0 mi WNW 8.1 mph - 0.00 in Snow Light Snow